Regional Weather Roundup
Issued by NWS

Home | Current Version | Previous Version | Graphics & Text | Print | Product List | Glossary On
Versions: 1 2 3 4 5 6 7 8 9 10 11 12 13 14 15 16 17 18 19 20 21 22 23 24 25 26 27 28 29 30 31 32 33 34 35 36 37 38 39 40 41 42 43 44 45 46 47 48 49 50
000
ASUS45 KBOU 071410
RWRCO

WEATHER ROUNDUP FOR COLORADO
NATIONAL WEATHER SERVICE DENVER/BOULDER CO
800 AM MDT TUE JUL 07 2015

NOTE: "FAIR" INDICATES FEW OR NO CLOUDS BELOW 12000 FEET WITH NO
SIGNIFICANT WEATHER AND/OR OBSTRUCTIONS TO VISIBILITY.

COZ001>005-013-030-031-071500-
...NORTHWEST COLORADO...

CITY           SKY/WX    TMP DP  RH WIND       PRES   REMARKS
CRAIG          NOT AVBL
HAYDEN         CLOUDY    55  48  76 SE7       30.22S
MEEKER         CLOUDY    59  54  83 CALM      30.22R
MOUNT WERNER   NOT AVBL
STEAMBOAT SPGS CLOUDY    54  51  90 CALM      30.24R
WALDEN         CLOUDY    52  46  82 CALM      30.31S
$$

COZ006>008-011-071500-
...WEST CENTRAL VALLEYS...

CITY           SKY/WX    TMP DP  RH WIND       PRES   REMARKS
GRAND JUNCTION LGT RAIN  66  55  67 E5        30.13R
MONTROSE       CLOUDY    65  46  50 VRB3      30.20R
EAGLE          PTSUNNY   57  54  88 VRB5      30.26S
RIFLE          CLOUDY    62  56  80 CALM      30.17R
DELTA          CLOUDY    65  50  57 CALM      30.16R
NUCLA          CLOUDY    63  48  59 CALM      30.25R
$$

COZ017>023-064>068-071500-
...SOUTHWEST COLORADO...

CITY           SKY/WX    TMP DP  RH WIND       PRES   REMARKS
DURANGO        MOSUNNY   59  54  83 VRB3      30.27R
CORTEZ         CLOUDY    64  53  67 CALM      30.21R
PAGOSA SPRINGS RAIN      55  54  97 NE3       30.34R
TELLURIDE      CLOUDY    56  47  71 CALM      30.39S
WOLF CREEK PAS NOT AVBL
$$

COZ009-010-012-014-032>034-037-058>063-071500-
...CENTRAL COLORADO...

CITY           SKY/WX    TMP DP  RH WIND       PRES   REMARKS
ASPEN          PTSUNNY   56  47  71 N3        30.28S
BUENA VISTA    CLOUDY    54  50  87 SE7       30.36S
COPPER MTN     CLOUDY    46  37  71 S12       30.56R
BERTHOUD PASS  CLOUDY    37  28  70 SW7       30.60R
COTTONWOOD PAS NOT AVBL
GUNNISON       CLOUDY    54  46  76 N7        30.33S
KREMMLING      CLOUDY    55  50  82 CALM      30.31R
LEADVILLE      CLOUDY    48  47  96 S10       30.43S
MONARCH PASS   FOG       43  41  93 S6        30.66S VSB<1/4
SALIDA         CLOUDY    56  51  84 SE10G16   30.41S
SUNLIGHT       CLOUDY    50  46  87 CALM      30.49S
WILKERSON PASS PTSUNNY   43  43 100 SW3       30.55S FOG
$$

COZ069>075-071500-
...SAN LUIS VALLEY/SANGRE DE CRISTO MOUNTAINS...

CITY           SKY/WX    TMP DP  RH WIND       PRES   REMARKS
ALAMOSA        LGT RAIN  55  52  89 SE9       30.32S
LA VETA PASS   CLOUDY    45  43  93 MISG      30.48R
SAGUACHE       CLOUDY    55  54  94 CALM      30.35S
$$

COZ035-036-038>040-071500-
...NORTHERN COLORADO FRONT RANGE...

CITY           SKY/WX    TMP DP  RH WIND       PRES   REMARKS
DENVER INTL AP CLOUDY    60  52  74 SE15      30.21F HAZE
DMNS CITY PARK   N/A     60  53  75 SE8       30.21S
AURORA         PTSUNNY   60  52  76 S14       30.24R
FRONT RANGE AP PTSUNNY   59  50  72 SE20      30.24S HAZE
ERIE MUNI ARPT CLOUDY    61  57  88 CALM      30.20F FOG
BOULDER MUN AP CLOUDY    59  59 100 CALM      30.21S FOG
CENTENNIAL     CLOUDY    59  53  80 S16G22    30.23S
BROOMFIELD     NOT AVBL
FORT COLLINS   CLOUDY    59  54  82 SE5       30.23R
LONGMONT       CLOUDY    63  57  81 E5        30.22S HAZE
$$

COZ041-046-047-076>085-087-088-071500-
...PIKES PEAK/PALMER DIVIDE AND SOUTHERN FOOTHILLS...

CITY           SKY/WX    TMP DP  RH WIND       PRES   REMARKS
COLO. SPRINGS  LGT RAIN  54  52  93 SE13      30.31S FOG
A. F. ACADEMY  CLOUDY    53  53  99 SE8       30.31R FOG
ELLICOTT       CLOUDY   N/A N/A N/A S12       30.30F FOG
FALCON         CLOUDY    51  51  97 S10       30.34S FOG
FORT CARSON    NOT AVBL
LIMON          CLOUDY    56  51  84 SE13      30.30R HAZE
MONUMENT HILL  CLOUDY    50  50 100 S16       30.32S FOG
TRINIDAD       CLOUDY    57  53  86 E7        30.28R FOG
$$

COZ042>045-048>051-090-091-071500-
...NORTHEAST COLORADO...

CITY           SKY/WX    TMP DP  RH WIND       PRES   REMARKS
GREELEY ARPT   CLOUDY    63  52  67 SE13      30.22R
AKRON          CLOUDY    59  50  72 S15       30.26R HAZE
BURLINGTON     MOSUNNY   59  52  77 SE9       30.27R HAZE
WRAY           PTSUNNY   62  52  69 SE6       30.26R
STERLING       CLOUDY    61  52  72 S10         N/A
HOLYOKE        MOSUNNY   63  55  77 SE9       30.25S
FORT MORGAN    PTSUNNY   60  50  69 SE13      30.24S
$$

COZ086-089-092>099-071500-
...SOUTHEAST COLORADO...

CITY           SKY/WX    TMP DP  RH WIND       PRES   REMARKS
PUEBLO         LGT RAIN  63  53  70 SE9       30.25S
LA JUNTA       CLOUDY    62  52  69 E9        30.25R HAZE
LAMAR          PTSUNNY   63  53  70 E9        30.22S HAZE
SPRINGFIELD      N/A     59  53  80 E9        30.24R
$$



USA.gov is the U.S. government's official web portal to all federal, state and local government web resources and services.